Port Edwards, WI

5:12 PM CST on December 07, 2016 (GMT -0600)
Alexander Field South Wood County

Weather History for KISW - October, 2012

Change the Weather History Date:

Saturday, October 6, 2012

  Actual Average Record
Temperature  
Mean Temperature 40 °F -  
Max Temperature 46 °F 60 °F 89 °F (1963)
Min Temperature 35 °F 38 °F 24 °F (1966)
Degree Days  
Heating Degree Days 26    
Moisture  
Dew Point 26 °F    
Average Humidity 59    
Maximum Humidity 70    
Minimum Humidity 45    
Precipitation  
Precipitation 0.00 in - - ()
Sea Level Pressure  
Sea Level Pressure 30.15 in    
Wind  
Wind Speed 11 mph (NW)    
Max Wind Speed 16 mph    
Max Gust Speed 23 mph    
Visibility 10 miles    
Events      
Averages and records for this station are not official NWS values.
T = Trace of Precipitation, MM = Missing Value Source: NWS Daily Summary

Daily Weather History Graph

Daily Weather History Graph

Search for Another Location

Airport or City:

Trip Planner

Search our weather history database for the weather conditions in past years. The results will help you decide how hot, cold, wet, or windy it might be!

Date:

Astronomy

Oct. 06, 2012 Rise Set
Actual Time 7:03 AM CDT 6:30 PM CDT
Civil Twilight 6:34 AM CDT 6:59 PM CDT
Nautical Twilight 6:01 AM CDT 7:32 PM CDT
Astronomical Twilight 5:27 AM CDT 8:06 PM CDT
Moon 10:35 PM CDT (10/6) 1:08 PM CDT (10/6)
Length of Visible Light 12h 24m
Length of Day
11h 26m
Waning Gibbous, 65% of the Moon is Illuminated
Oct 6
Waning Gibbous
Oct 8
Last Quarter
Oct 15
New
Oct 21
First Quarter
Oct 29
Full

Hourly Weather History & Observations

Time (CDT) Temp. Windchill Dew Point Humidity Pressure Visibility Wind Dir Wind Speed Gust Speed Precip Events Conditions
12:54 AM 37.9 °F 30.9 °F 24.1 °F 57% 30.05 in 10.0 mi WNW 10.4 mph - N/A   Mostly Cloudy
1:54 AM 37.9 °F 30.0 °F 25.0 °F 60% 30.05 in 10.0 mi WNW 12.7 mph - N/A   Overcast
2:54 AM 37.9 °F 30.5 °F 25.0 °F 60% 30.05 in 10.0 mi WNW 11.5 mph 20.7 mph N/A   Overcast
3:54 AM 37.9 °F 30.5 °F 26.1 °F 62% 30.06 in 10.0 mi WNW 11.5 mph 18.4 mph N/A   Overcast
4:54 AM 37.9 °F 30.5 °F 26.1 °F 62% 30.06 in 10.0 mi WNW 11.5 mph - N/A   Overcast
5:54 AM 37.9 °F 31.5 °F 28.0 °F 68% 30.09 in 10.0 mi WNW 9.2 mph 17.3 mph N/A   Overcast
6:16 AM 37.4 °F 30.8 °F 28.4 °F 70% 30.07 in 10.0 mi WNW 9.2 mph - N/A   Overcast
6:54 AM 37.0 °F 28.5 °F 27.0 °F 67% 30.11 in 10.0 mi NW 13.8 mph - N/A   Overcast
7:23 AM 37.4 °F 29.3 °F 26.6 °F 65% 30.09 in 10.0 mi NW 12.7 mph - N/A   Overcast
7:39 AM 37.4 °F 30.8 °F 26.6 °F 65% 30.10 in 10.0 mi NW 9.2 mph - N/A   Overcast
7:54 AM 37.0 °F 30.4 °F 27.0 °F 67% 30.14 in 10.0 mi NW 9.2 mph - N/A   Mostly Cloudy
8:34 AM 37.4 °F 29.8 °F 26.6 °F 65% 30.12 in 10.0 mi NW 11.5 mph 23.0 mph N/A   Mostly Cloudy
8:41 AM 35.6 °F 27.5 °F 26.6 °F 70% 30.12 in 10.0 mi NW 11.5 mph - N/A   Scattered Clouds
8:52 AM 37.4 °F 30.3 °F 26.6 °F 65% 30.13 in 10.0 mi NW 10.4 mph - N/A   Mostly Cloudy
8:54 AM 37.0 °F 29.8 °F 28.0 °F 70% 30.16 in 10.0 mi NW 10.4 mph - N/A   Mostly Cloudy
9:54 AM 39.9 °F 31.4 °F 27.0 °F 60% 30.17 in 10.0 mi NW 16.1 mph 23.0 mph N/A   Mostly Cloudy
10:54 AM 41.0 °F 33.9 °F 27.0 °F 57% 30.18 in 10.0 mi NNW 12.7 mph - N/A   Overcast
11:54 AM 44.1 °F 38.6 °F 26.1 °F 49% 30.19 in 10.0 mi NNW 10.4 mph 19.6 mph N/A   Overcast
12:54 PM 42.1 °F 34.9 °F 25.0 °F 51% 30.19 in 10.0 mi NW 13.8 mph 17.3 mph N/A   Overcast
1:54 PM 44.1 °F 38.6 °F 24.1 °F 45% 30.18 in 10.0 mi NNW 10.4 mph - N/A   Mostly Cloudy
2:54 PM 43.0 °F 36.8 °F 25.0 °F 49% 30.18 in 10.0 mi NNW 11.5 mph - N/A   Overcast
3:54 PM 42.1 °F 37.7 °F 27.0 °F 55% 30.19 in 10.0 mi NNW 6.9 mph - 0.00 in   Overcast
4:54 PM 42.1 °F 35.7 °F 26.1 °F 53% 30.19 in 10.0 mi North 11.5 mph - N/A   Overcast
5:54 PM 41.0 °F 34.3 °F 24.1 °F 51% 30.20 in 10.0 mi NNW 11.5 mph - N/A   Overcast
6:54 PM 41.0 °F 36.4 °F 23.0 °F 49% 30.21 in 10.0 mi NW 6.9 mph - N/A   Overcast
7:54 PM 39.9 °F 34.5 °F 23.0 °F 51% 30.23 in 10.0 mi North 8.1 mph - N/A   Overcast
8:54 PM 39.9 °F 35.8 °F 24.1 °F 53% 30.23 in 10.0 mi North 5.8 mph - N/A   Overcast
9:54 PM 39.0 °F 36.8 °F 24.1 °F 55% 30.23 in 10.0 mi NNW 3.5 mph - N/A   Overcast
10:54 PM 37.9 °F 35.5 °F 25.0 °F 60% 30.23 in 10.0 mi NNW 3.5 mph - N/A   Overcast
11:54 PM 37.9 °F 35.5 °F 24.1 °F 57% 30.22 in 10.0 mi NW 3.5 mph - N/A   Overcast